Theta_e
309 308 308 308 308 308 308 308 308 308 308 308 308 308 308 309 309 309 309 309 309 310 310 310 311 311 311 311 311 311 311 312 313 313 314 314 314 314 314 314 314 313 314 314 314 314 313 313 313 313 313 313 314 316 316 315 315 316 317 315 314 315 314 315 317 317 316 316 316 315 314 315 316 315 314 315 315 314 315 315 314 314 313 313 313 313 313 313
309 309 309 309 309 308 308 308 308 308 308 308 308 309 309 309 309 309 309 310 310 310 310 310 311 311 311 311 311 311 311 312 313 314 314 314 314 314 314 314 314 314 314 314 314 314 314 314 314 313 313 314 315 316 317 316 316 316 317 315 314 315 314 314 316 316 316 316 316 315 314 314 315 315 314 315 315 315 315 315 314 314 313 312 312 312 313 313
311 310 309 309 309 309 308 309 309 308 309 309 309 309 309 309 309 310 310 310 310 310 310 310 311 311 311 311 311 311 311 312 313 314 314 314 314 314 314 315 315 315 315 314 314 314 314 313 314 313 313 314 315 315 316 317 316 316 316 316 316 316 314 313 315 316 315 315 316 316 314 314 314 314 314 315 315 316 315 315 314 314 312 312 312 312 312 312
312 311 311 310 310 309 309 309 309 309 309 309 309 309 309 310 309 310 310 310 310 310 310 311 311 310 311 311 311 311 311 312 314 313 313 313 314 314 314 314 314 315 315 314 314 314 314 314 313 313 313 315 315 314 316 316 316 317 316 316 316 314 314 314 314 315 314 314 315 315 313 314 314 313 313 314 315 316 314 312 312 311 310 310 311 311 312 313
312 312 312 311 311 310 310 309 309 309 309 309 309 309 309 309 310 310 310 310 310 310 310 310 311 311 310 311 311 311 311 314 315 313 313 314 313 314 314 314 314 314 314 314 314 314 314 313 313 313 314 315 315 314 315 314 315 316 315 316 315 314 315 315 314 315 314 314 313 313 313 314 314 312 313 313 314 315 312 310 310 309 309 310 311 311 312 313
311 311 312 312 312 311 311 310 309 309 309 309 309 309 309 309 310 310 310 310 310 310 310 310 310 310 310 311 311 311 311 313 314 313 313 313 313 314 314 314 314 314 314 314 314 314 313 313 313 314 315 315 314 314 314 314 314 316 315 314 314 314 316 315 314 314 313 313 313 313 313 313 313 313 312 312 312 311 309 310 309 308 309 310 311 312 312 313
310 310 311 311 311 311 311 311 310 310 310 309 309 309 309 310 310 310 310 310 310 310 310 310 310 310 310 310 310 311 312 312 313 314 313 313 313 314 314 314 314 314 314 314 315 315 313 313 314 314 315 314 314 314 314 314 314 315 315 314 314 314 315 315 313 313 312 312 313 312 312 312 313 313 312 310 309 308 308 309 309 309 309 310 311 312 312 312
309 309 309 310 311 311 311 311 311 310 310 310 310 310 309 309 310 310 310 310 310 310 310 310 310 310 310 310 311 312 312 312 312 313 313 313 313 313 314 314 314 314 315 315 316 315 313 313 314 313 315 314 313 314 313 314 315 315 315 314 314 313 313 313 312 313 312 312 312 311 311 312 312 312 311 309 307 307 308 309 309 310 310 310 311 311 312 312
309 308 308 309 309 310 310 311 311 311 311 310 310 310 310 309 310 310 310 310 309 310 310 310 310 310 310 310 311 312 313 313 314 314 314 315 315 315 315 315 316 316 316 317 316 315 313 313 314 313 315 313 313 314 312 314 316 314 314 314 313 313 312 313 313 313 313 312 311 311 313 312 310 311 311 307 306 307 308 309 310 310 310 311 311 311 311 311
308 308 308 307 308 308 309 310 310 310 311 311 310 310 310 309 310 310 309 310 309 309 310 309 310 310 310 311 313 313 314 315 315 315 316 317 318 318 318 317 318 318 318 318 317 315 313 313 314 314 315 314 313 313 312 314 314 313 313 312 313 313 312 312 313 312 312 312 311 312 314 312 309 311 311 307 307 308 308 309 310 310 310 310 311 311 311 311
308 307 307 307 307 307 307 308 308 309 310 310 310 310 310 309 309 309 309 309 309 309 309 309 310 310 312 313 315 315 314 315 316 316 317 317 318 319 319 319 319 319 318 317 316 315 313 313 314 314 315 314 313 313 312 312 312 312 312 313 313 313 313 313 312 311 311 312 310 311 312 310 309 311 311 308 307 308 309 309 309 310 310 310 310 310 310 310
308 307 307 307 307 307 307 307 307 307 308 309 309 309 309 309 309 309 309 309 309 309 309 310 311 313 314 315 315 315 314 315 315 316 317 317 318 319 319 319 318 317 317 317 316 314 313 313 313 315 315 315 314 313 312 312 311 312 312 314 315 314 315 313 311 310 311 312 310 310 312 311 311 311 309 308 308 308 308 309 309 309 309 309 309 309 309 309
307 307 307 307 307 307 307 307 307 307 307 307 308 308 308 308 308 308 309 309 309 310 312 313 315 315 315 315 316 315 316 316 316 316 317 317 317 318 318 318 317 316 316 317 316 314 313 313 314 314 314 315 314 313 313 311 311 313 312 313 315 317 316 312 310 310 311 312 310 311 315 314 311 310 309 309 309 309 309 309 309 309 308 308 308 308 309 309
307 308 308 308 308 307 307 307 307 307 307 307 307 308 308 308 309 309 310 311 312 314 315 316 316 316 315 316 317 317 317 318 318 317 317 317 317 317 317 316 316 316 315 316 315 314 314 315 315 315 314 314 313 313 313 312 312 313 313 313 315 317 316 312 310 311 313 312 309 311 316 315 312 309 309 310 309 309 310 309 308 308 308 308 308 308 308 309
308 308 308 308 308 308 308 308 308 308 308 308 309 309 310 311 312 313 314 315 316 316 316 316 316 316 316 317 318 318 318 318 318 318 318 317 317 316 316 316 316 315 315 315 315 315 316 316 315 315 313 313 313 313 314 314 313 313 314 316 316 315 316 314 310 310 312 311 310 312 316 316 312 310 309 309 309 309 309 309 308 308 307 307 307 307 308 308
308 308 308 308 308 308 308 308 308 309 310 310 311 312 314 315 316 316 317 316 316 316 316 316 316 316 316 317 318 318 318 318 318 318 318 317 317 316 316 316 315 315 315 315 315 315 316 315 314 314 312 313 314 314 315 316 315 314 315 318 318 316 316 315 311 309 311 311 311 313 315 317 313 309 309 309 309 309 309 308 306 307 307 306 307 307 307 308
308 308 308 308 308 308 309 309 309 310 312 313 314 315 316 317 317 317 317 316 316 315 315 316 316 316 317 317 317 317 318 318 318 317 317 317 316 316 315 315 315 315 315 315 315 315 315 314 313 313 313 313 314 315 316 317 318 316 314 316 317 315 315 315 313 311 310 311 313 312 313 316 312 309 308 308 308 308 309 307 306 305 306 306 306 306 306 307
308 307 308 308 309 309 310 310 311 312 314 315 316 317 317 317 316 315 315 315 315 315 315 316 316 318 318 317 317 317 317 317 317 317 317 316 315 315 315 315 315 315 315 315 314 314 314 313 313 315 314 313 313 315 317 318 318 318 316 316 316 314 313 314 314 312 310 312 314 313 313 315 313 309 308 308 308 308 308 306 305 304 304 304 304 305 306 307
308 308 308 309 310 310 311 312 313 313 315 316 316 316 316 315 315 315 314 315 315 316 317 317 317 318 318 317 317 317 316 317 316 316 316 316 315 315 315 315 315 315 314 315 315 314 314 314 314 316 316 314 314 315 317 318 317 317 317 316 316 315 314 314 313 311 310 312 314 314 314 315 315 312 308 307 307 307 307 305 304 304 303 303 303 305 306 306
309 309 310 311 311 312 313 314 315 315 316 316 315 315 315 315 316 316 315 315 316 318 318 318 317 318 317 316 316 316 316 316 316 315 315 316 315 315 315 314 314 314 314 316 316 313 313 315 316 317 317 316 315 315 316 315 314 315 315 315 315 316 316 315 313 309 309 312 314 314 314 314 315 313 309 306 306 306 306 306 305 304 303 303 303 304 305 306
310 311 311 312 313 314 315 316 315 316 316 315 314 315 315 316 317 317 317 316 317 317 317 317 317 316 316 316 316 315 315 315 315 315 316 315 315 315 315 314 314 315 313 313 314 312 312 316 317 317 316 315 314 314 313 312 313 313 314 315 315 315 315 315 312 309 308 311 314 312 312 313 314 313 308 306 307 307 306 306 305 303 302 302 302 303 304 305
311 312 312 313 315 317 316 316 316 315 315 314 313 314 315 315 316 316 317 317 317 316 316 316 315 315 315 315 315 315 315 315 315 315 316 315 316 315 314 313 314 314 312 311 313 313 313 316 317 314 312 311 311 311 312 312 313 313 314 314 315 315 315 314 311 308 308 311 314 312 311 314 314 310 307 306 307 305 304 304 303 302 302 301 301 302 303 305
313 313 312 314 318 319 317 316 316 315 314 314 314 314 315 316 316 316 316 317 317 317 316 316 316 315 315 315 315 314 315 316 315 315 315 315 315 315 314 313 314 313 311 312 315 316 316 315 314 313 311 311 310 309 310 312 312 313 314 314 316 316 316 316 313 309 308 309 311 312 311 314 314 309 306 305 304 303 301 301 301 301 301 301 301 302 303 304
315 315 316 315 316 317 316 316 315 315 314 314 314 314 315 316 316 315 317 318 318 318 316 316 317 316 316 315 315 315 315 316 316 316 316 315 315 314 314 314 313 312 312 313 314 316 316 313 311 311 311 312 311 309 310 312 313 314 314 314 316 316 315 316 313 310 310 309 309 311 314 316 315 312 308 305 302 302 301 300 301 300 300 301 301 302 303 304
315 316 317 317 316 316 316 316 315 315 314 314 314 314 314 315 316 316 317 319 320 319 317 317 317 317 317 316 316 315 315 315 315 316 315 315 315 314 313 313 312 313 313 312 313 315 315 311 309 310 310 312 313 311 312 314 315 316 314 313 315 315 314 314 312 311 314 314 310 311 318 319 314 312 311 306 303 303 302 302 302 300 299 300 300 301 303 304
316 316 316 317 319 317 316 315 315 314 314 314 313 313 313 315 316 316 316 319 321 319 317 318 318 319 318 317 316 315 316 316 315 316 316 315 315 314 313 312 312 313 313 312 312 314 313 309 310 312 311 312 313 313 314 314 316 317 315 313 313 313 314 313 313 313 316 317 311 308 316 320 316 315 312 307 305 305 303 303 303 301 300 299 299 301 303 303
317 317 315 316 317 317 316 315 315 313 313 314 313 313 315 316 316 315 316 320 323 320 318 318 318 318 318 317 316 316 318 317 315 315 315 315 314 313 314 312 311 312 311 312 314 314 312 310 311 313 314 314 314 315 314 313 316 318 315 313 312 312 313 313 313 314 315 316 312 310 313 317 318 316 310 306 307 306 304 304 303 302 300 299 299 301 303 303
316 317 316 316 316 316 316 315 314 314 313 314 313 313 316 317 315 316 319 323 323 319 319 317 315 316 317 317 316 317 316 315 316 315 313 314 313 313 314 313 313 312 310 313 318 315 312 313 313 314 314 314 315 316 314 313 316 316 311 310 311 312 313 313 313 314 313 314 315 314 313 315 318 315 308 306 308 308 306 304 304 303 301 300 299 300 302 303
316 316 316 316 316 316 316 315 314 313 313 314 313 314 317 316 316 318 322 323 321 318 317 316 314 314 315 315 315 314 312 312 314 313 311 312 312 312 313 313 313 312 310 312 318 316 311 311 312 313 315 315 315 312 311 314 315 311 308 309 310 310 311 312 313 314 312 314 318 317 314 316 319 317 313 310 310 311 309 306 305 304 301 300 299 300 302 302
317 316 315 315 316 316 316 315 314 313 314 314 314 315 317 317 318 322 323 324 323 318 314 314 313 314 315 315 314 311 310 311 311 310 311 311 311 312 312 312 311 312 311 311 314 312 308 307 309 312 313 312 310 306 306 311 311 309 310 311 311 311 310 311 312 312 313 316 317 315 314 315 317 318 317 315 312 311 310 307 305 303 301 300 299 299 301 302
318 317 315 315 316 315 315 315 314 313 315 317 317 316 318 319 321 325 324 323 321 317 313 312 312 313 315 317 316 312 309 309 309 311 311 310 311 311 311 313 312 313 314 313 313 311 308 308 310 310 309 308 309 307 305 305 306 309 313 313 314 313 312 312 312 312 317 319 314 310 310 313 316 318 317 314 309 307 309 308 305 303 302 300 299 300 301 302
319 318 316 315 315 315 315 315 313 313 316 319 319 317 319 321 323 325 322 319 320 318 315 313 311 313 315 316 316 312 310 310 310 311 311 311 312 312 313 316 315 316 317 316 315 313 312 312 311 309 307 308 311 311 308 306 306 310 313 313 317 317 315 317 316 314 317 317 311 308 310 312 316 317 315 312 308 306 307 307 305 304 303 301 299 300 301 302
321 319 317 316 316 315 315 314 313 314 318 320 318 318 321 323 323 323 321 320 320 317 314 313 311 313 315 316 314 310 311 312 310 310 311 311 313 313 314 314 314 318 319 317 317 315 316 315 311 310 309 309 312 313 312 310 308 311 313 315 319 319 318 320 318 315 317 315 308 307 311 313 316 315 312 309 307 304 303 303 304 304 303 301 300 301 301 301
323 321 320 318 318 317 315 314 313 315 319 319 317 319 322 323 323 323 322 321 319 313 311 312 312 312 315 316 313 311 313 313 310 310 311 311 313 314 314 312 311 315 316 316 317 317 320 319 313 312 312 310 312 313 314 313 310 311 313 315 317 317 319 321 319 317 317 314 309 308 312 316 317 313 306 304 302 301 301 300 301 303 302 301 300 301 301 301
323 323 322 319 319 318 315 314 313 315 319 317 317 321 323 322 323 323 323 321 317 313 311 312 313 315 316 315 311 311 314 314 310 310 311 312 314 314 315 313 311 312 315 318 318 315 319 320 313 309 308 309 311 311 311 313 312 310 310 312 315 315 316 314 312 313 313 313 312 310 313 315 314 308 301 301 301 300 300 300 300 302 301 300 300 300 300 301
323 323 321 318 318 317 316 315 313 314 317 317 318 321 322 322 322 324 324 320 316 314 312 313 314 316 317 315 312 311 313 313 311 312 312 312 313 314 315 315 312 311 315 319 317 314 317 317 311 307 307 307 309 309 308 311 313 311 310 313 313 312 312 312 310 308 308 315 316 313 314 313 312 309 303 301 302 302 301 301 301 301 300 299 299 299 300 301
322 321 319 318 318 318 316 315 314 314 316 317 319 320 320 321 322 323 322 317 314 313 314 317 317 317 317 317 315 312 313 313 311 313 314 312 313 313 313 314 312 311 314 316 316 315 317 316 311 309 310 307 304 307 308 308 310 311 312 314 311 310 312 313 315 312 312 318 317 313 315 315 315 314 307 302 305 304 302 301 301 301 300 299 299 300 300 301
322 320 319 319 319 318 317 316 314 315 316 317 318 319 320 321 319 319 318 314 313 314 317 320 319 317 317 318 316 313 314 315 313 313 315 313 315 315 312 313 313 311 313 313 314 315 316 317 313 308 310 307 304 308 310 307 307 309 311 312 312 314 315 314 316 317 317 319 316 313 313 313 315 316 311 308 309 307 303 301 301 301 300 300 300 300 300 301
322 319 318 319 319 318 318 317 315 315 316 318 318 317 319 320 318 317 316 314 314 316 317 320 320 318 317 318 317 314 313 315 313 313 315 314 315 314 312 314 313 312 312 312 314 315 314 318 317 309 308 308 306 309 312 310 307 307 309 310 310 313 315 315 314 316 318 318 315 313 312 312 314 315 313 313 311 308 305 301 301 303 302 301 300 300 301 301
320 317 317 318 318 318 318 316 315 316 317 317 316 316 318 319 318 317 317 316 317 318 319 322 322 320 319 318 318 314 313 315 313 313 316 315 314 314 311 313 313 311 311 312 313 315 314 317 318 311 308 309 310 311 313 312 310 309 311 311 311 311 311 313 313 311 314 316 316 315 315 315 312 311 313 314 311 309 307 303 303 304 302 301 301 301 302 302
319 317 317 318 318 318 317 316 316 316 317 316 315 315 316 318 318 318 317 316 318 318 319 322 323 322 321 318 318 316 315 315 313 314 316 314 314 316 313 311 312 311 310 311 313 315 315 316 316 312 310 311 313 311 311 312 312 312 312 312 313 312 312 315 316 311 310 313 314 313 316 316 310 306 308 309 307 307 307 306 306 304 303 302 302 303 303 303
318 317 317 317 318 318 317 316 316 316 317 316 316 315 316 317 317 317 317 316 317 318 317 319 322 323 323 320 319 318 316 316 314 314 316 316 316 318 312 308 310 310 311 312 313 314 314 314 315 314 313 312 311 307 305 308 311 311 312 313 313 313 313 317 319 313 310 311 311 310 314 316 308 302 303 304 303 304 305 306 306 305 303 302 302 303 303 302
317 317 317 317 317 318 317 317 317 317 317 317 316 315 316 316 316 317 317 316 317 318 318 319 320 321 322 321 320 318 317 317 316 315 317 319 317 314 309 307 310 311 312 313 313 313 313 314 316 316 314 311 308 306 305 307 310 310 311 312 312 313 314 316 317 314 312 313 311 311 315 315 308 302 302 302 301 301 302 303 304 304 303 302 301 301 300 300
316 315 315 316 317 317 318 319 318 317 318 316 316 316 316 316 316 316 317 317 317 318 319 320 319 319 321 321 319 319 318 318 317 316 317 319 316 310 307 308 311 313 313 313 314 314 314 316 317 317 317 315 313 312 311 310 310 311 312 311 312 314 315 314 313 312 313 315 314 315 317 316 310 305 303 302 301 302 301 301 302 302 302 301 300 300 300 299
314 314 313 315 317 316 317 318 318 317 318 317 316 316 316 315 315 316 317 317 317 317 318 318 317 317 319 319 318 318 318 318 318 316 315 316 314 309 307 309 311 313 313 312 313 314 315 317 317 318 320 320 319 318 316 314 313 311 312 311 311 313 313 313 312 312 314 315 314 316 317 315 310 306 306 305 304 303 302 300 300 300 300 300 300 300 300 299
313 313 312 312 314 313 313 314 315 316 318 317 317 316 316 315 315 315 316 317 316 315 316 316 315 316 318 318 318 317 316 317 317 315 314 315 313 308 306 307 309 311 312 312 312 313 313 315 317 318 319 319 319 317 315 316 315 313 313 312 311 311 312 312 313 314 314 313 313 315 316 315 312 308 308 308 306 305 304 301 300 300 301 301 301 301 300 299
312 312 311 312 312 311 311 311 312 315 317 317 316 315 315 316 315 314 315 316 316 315 314 314 315 317 318 317 318 318 315 315 315 314 314 314 312 307 305 306 307 309 311 311 312 313 314 314 316 317 317 317 318 317 314 315 315 314 314 313 311 310 310 312 313 314 315 314 314 315 314 315 314 310 310 310 307 306 306 303 302 302 303 303 302 302 301 301
309 309 309 310 311 311 311 311 311 313 315 316 315 315 315 315 315 315 315 314 314 315 315 314 314 316 317 316 317 315 314 314 312 312 313 313 311 309 308 308 307 307 308 309 310 313 314 315 315 316 315 315 316 315 312 313 314 313 313 313 312 310 310 311 312 313 314 314 315 315 313 313 313 311 312 311 308 307 307 305 305 305 305 303 302 302 301 301
306 306 305 306 308 307 308 309 310 312 314 315 314 314 315 315 314 314 314 313 313 314 315 314 313 314 315 314 314 313 313 313 313 311 311 312 312 311 311 311 308 305 306 309 309 310 313 315 314 315 315 314 314 312 311 312 312 311 312 312 312 311 309 310 311 312 312 313 314 313 312 312 312 313 314 311 307 307 306 305 305 306 305 304 302 302 303 303
305 305 305 304 304 303 304 307 309 310 311 312 312 312 313 314 314 313 313 313 314 314 313 313 311 312 313 312 312 312 312 313 314 313 312 312 312 311 312 313 309 305 306 309 310 309 311 314 313 312 314 313 311 310 309 310 311 312 312 312 312 311 310 309 310 311 311 312 312 312 312 312 311 311 311 307 305 306 305 304 304 305 305 304 303 303 304 304
306 306 306 305 304 303 303 305 306 308 309 309 309 310 311 312 313 312 311 311 311 312 312 312 311 311 311 311 310 311 312 312 314 313 313 313 312 313 313 312 309 308 307 308 309 309 310 311 309 311 315 312 307 307 307 307 308 310 311 312 311 311 310 310 310 311 311 311 311 311 312 311 309 309 308 305 303 304 304 303 303 304 304 303 303 304 304 304
305 305 305 305 305 303 303 304 304 307 309 308 307 308 308 309 310 311 311 309 309 310 311 311 311 310 310 310 311 312 312 311 312 311 312 312 311 312 313 310 309 309 308 307 308 308 309 309 309 311 315 311 304 304 306 307 309 311 311 311 311 310 310 310 309 310 310 310 311 311 311 311 308 307 307 304 302 303 304 303 303 304 304 303 303 303 303 303
Wind_Speed
4 4 4 4 5 5 5 5 5 6 6 6 6 6 5 5 5 4 4 3 3 2 2 1 1 2 3 4 4 5 5 6 8 9 9 7 5 2 4 6 5 4 4 4 4 3 3 2 2 3 4 3 4 5 5 5 4 2 0 1 0 1 1 2 4 3 2 3 3 1 3 2 3 3 4 6 4 4 8 7 4 1 1 3 6 10 13 15
5 5 5 5 5 4 4 4 5 5 5 5 5 5 5 5 4 4 3 3 2 2 2 2 3 3 4 5 6 6 5 7 9 8 6 3 0 6 9 9 7 5 5 6 6 4 2 1 1 2 3 3 4 3 3 4 4 2 0 1 1 2 2 1 2 3 1 2 2 1 2 2 4 4 5 5 3 3 7 3 3 4 2 3 8 10 11 10
7 7 7 6 5 5 5 5 5 5 5 5 5 5 5 4 4 4 3 3 3 3 3 3 4 4 5 6 7 6 6 8 7 2 2 5 8 11 10 8 6 5 6 8 8 5 3 1 1 1 3 4 4 3 3 2 2 1 1 1 2 2 1 3 3 2 2 1 1 1 2 3 3 3 4 6 8 5 1 3 2 2 2 10 12 8 6 4
8 8 8 7 7 6 6 6 6 6 6 5 5 5 5 5 5 4 4 4 4 4 4 4 5 6 6 7 7 7 7 7 2 5 7 9 10 8 6 4 2 3 7 9 8 6 4 1 0 2 3 4 3 2 2 2 2 1 1 2 4 2 2 4 5 3 3 3 2 1 3 4 1 2 4 4 8 3 3 4 6 6 9 12 9 4 3 3
9 9 9 8 8 8 7 7 6 6 6 6 6 5 5 5 5 5 5 5 5 5 5 6 6 7 7 7 7 7 6 3 4 8 7 7 5 2 1 1 4 6 8 10 8 6 3 1 1 2 3 3 2 1 2 2 1 2 1 2 4 3 1 3 4 4 4 4 3 3 3 3 2 3 4 4 5 3 3 8 9 7 7 6 4 1 0 0
10 10 10 10 9 9 9 8 8 7 7 7 7 6 6 6 6 6 6 6 6 6 6 7 7 7 8 8 8 7 5 2 3 6 6 4 3 4 6 7 9 10 10 10 8 6 3 1 2 2 2 2 1 1 2 2 1 1 1 2 3 4 3 1 3 4 3 4 4 4 4 3 4 4 3 3 3 4 7 8 6 2 3 1 0 1 2 2
12 11 11 11 11 10 10 10 9 9 8 8 8 7 7 7 7 7 7 7 7 7 7 8 8 8 8 8 8 6 6 5 4 6 6 7 9 10 11 11 11 11 10 9 6 5 2 2 3 4 2 1 2 2 3 3 2 2 1 3 3 5 5 3 4 6 6 6 6 6 6 5 4 3 2 3 2 5 5 3 2 1 1 1 1 1 1 2
13 13 12 12 12 12 11 11 11 10 10 10 10 9 9 8 9 9 9 8 8 9 9 8 8 8 8 8 7 6 8 9 6 8 9 11 12 12 13 12 12 11 9 8 5 4 2 4 4 4 2 1 2 3 3 2 3 3 1 2 2 4 5 6 8 10 12 12 10 8 7 5 5 3 3 3 1 3 2 1 1 2 2 1 1 1 2 4
15 14 13 13 13 13 12 12 12 12 12 12 11 10 10 10 10 10 10 9 9 9 10 9 9 9 9 8 7 6 7 8 6 7 8 10 10 11 12 11 11 9 8 7 5 4 3 5 5 4 2 3 4 3 4 3 2 2 1 1 2 4 6 9 10 11 12 11 8 6 5 3 4 4 4 2 2 3 3 3 3 2 2 2 2 2 2 3
15 15 14 13 13 13 13 13 13 13 13 13 12 12 12 11 11 11 11 10 10 10 10 10 10 10 9 8 7 6 7 7 6 6 7 7 7 7 8 8 7 6 5 5 5 5 4 5 5 5 2 4 5 3 4 3 1 2 1 3 6 7 8 10 10 10 10 9 7 7 4 2 6 6 3 2 0 4 5 5 4 4 3 3 1 1 2 2
16 16 15 14 14 13 13 13 14 14 14 14 13 13 13 12 12 12 12 11 11 11 11 11 10 10 10 9 7 7 8 9 7 7 7 7 7 6 6 7 6 5 4 4 5 6 6 6 5 5 2 3 5 3 3 2 1 2 1 5 6 7 8 9 8 8 6 5 4 5 2 4 5 4 2 2 3 5 5 5 4 3 2 1 1 2 3 3
17 16 16 15 14 13 13 13 14 14 14 14 14 14 13 13 13 12 12 12 12 12 12 11 11 11 10 10 13 14 13 13 11 9 9 8 9 8 8 8 7 6 6 6 6 6 7 7 6 4 2 3 4 2 3 3 1 0 2 5 6 6 5 2 1 1 1 1 2 4 3 4 5 4 4 0 5 7 4 4 2 1 1 1 3 4 5 5
17 17 17 16 14 13 13 14 14 14 15 14 14 14 13 13 13 13 13 12 12 12 12 11 11 11 9 10 15 16 14 15 14 13 13 12 12 11 11 11 10 10 9 7 7 7 8 7 6 4 4 4 2 2 3 4 0 2 0 3 6 6 3 2 1 1 1 2 4 3 3 3 6 5 2 1 6 8 4 3 2 2 1 1 2 3 4 4
18 18 18 17 16 15 15 15 14 14 14 14 14 14 13 13 13 13 13 13 13 12 12 11 10 10 9 10 15 15 14 14 14 14 15 14 15 14 14 14 12 10 8 8 8 8 8 7 6 5 4 3 3 4 3 2 1 2 1 1 3 4 1 4 1 3 2 1 4 5 5 1 8 6 0 0 6 8 5 4 4 3 2 1 0 1 2 3
19 19 18 18 17 16 16 15 14 14 14 14 14 13 13 13 13 13 13 13 13 12 12 11 10 8 7 11 15 14 15 16 16 16 15 15 15 15 14 13 10 9 8 9 9 8 7 7 6 4 5 5 6 5 1 0 0 1 3 3 2 2 1 3 2 2 2 1 2 5 4 1 8 7 0 1 5 7 5 4 4 4 3 2 1 0 1 2
20 19 19 19 18 17 16 15 15 14 14 14 14 14 14 13 13 13 13 13 12 12 11 10 10 8 6 9 13 13 15 15 15 16 17 16 15 13 12 10 9 9 9 10 9 8 8 8 6 5 6 5 5 4 1 2 2 1 3 4 2 3 3 0 3 2 2 1 1 2 4 2 5 6 1 1 3 5 5 4 4 4 3 3 2 2 1 2
20 20 20 19 19 18 17 16 15 15 15 15 14 14 14 13 13 13 13 12 12 11 10 8 7 8 8 10 12 14 16 16 14 14 14 15 15 13 11 10 10 10 10 9 8 8 8 8 6 5 4 2 3 4 2 5 5 3 2 4 3 3 4 2 2 3 3 1 2 1 5 6 4 7 1 1 4 4 4 4 4 4 3 3 3 3 4 4
21 21 20 19 18 18 18 17 16 16 16 15 14 14 13 13 13 13 12 13 11 8 8 9 7 4 8 14 14 13 13 13 14 13 12 13 13 12 12 11 11 11 9 7 7 8 7 6 3 2 2 3 4 6 6 5 4 3 4 3 3 3 5 5 2 1 1 2 3 3 7 9 4 8 4 3 5 4 3 4 3 3 3 3 3 4 5 5
22 21 20 19 18 19 18 17 16 17 17 15 14 13 13 12 11 12 13 12 11 7 4 9 12 5 3 8 13 13 10 10 11 13 13 13 14 13 12 10 11 12 9 6 6 7 6 4 3 4 5 7 8 10 10 3 2 1 3 2 4 4 6 5 1 1 1 4 7 8 9 11 9 6 6 4 5 4 3 4 3 2 2 2 3 4 5 6
23 22 20 19 18 18 19 18 17 18 17 16 14 12 10 7 6 8 12 17 18 17 13 11 14 13 6 4 8 10 9 9 11 12 14 14 15 14 13 11 11 11 7 5 5 6 6 4 6 8 7 8 11 13 7 2 4 2 2 2 4 5 7 4 2 3 1 4 7 8 9 11 12 5 6 5 5 5 4 3 3 2 2 2 4 5 6 6
24 22 21 19 18 18 20 19 17 18 17 16 15 12 9 8 6 3 7 14 19 22 22 20 17 16 13 9 8 9 9 10 11 13 14 15 15 12 12 13 10 7 5 4 5 4 5 6 11 10 2 2 7 9 4 2 3 3 4 5 4 5 7 5 1 3 2 3 5 4 6 11 12 4 5 4 5 5 4 4 3 3 3 3 4 5 6 6
24 23 22 19 16 19 21 19 17 18 18 17 17 16 13 12 12 8 6 8 13 17 19 22 23 21 20 16 12 11 11 9 10 14 15 17 18 12 12 13 8 5 5 6 5 3 5 9 11 5 6 6 2 4 6 6 6 4 4 4 4 4 5 5 0 3 2 3 3 2 5 11 8 2 5 3 4 3 3 3 4 4 4 4 5 6 7 7
25 23 21 18 18 21 23 18 16 18 19 19 20 19 16 13 12 11 8 6 11 16 18 21 24 26 27 23 19 17 14 10 11 17 19 21 20 16 14 13 8 5 7 9 8 6 5 8 7 7 8 5 3 4 7 5 5 6 4 4 6 3 2 5 1 3 2 2 3 2 5 10 7 4 4 3 4 4 4 4 4 5 5 6 7 7 8 8
24 20 18 19 20 23 21 16 16 18 20 22 22 20 16 12 10 9 7 5 8 12 17 21 22 26 28 25 22 20 19 17 14 17 22 24 22 15 13 12 7 6 9 13 13 11 5 1 2 9 9 7 5 5 7 5 5 7 7 7 8 5 6 7 1 2 3 2 2 4 7 9 6 4 3 4 5 5 5 5 5 5 6 7 7 8 9 10
22 19 18 17 19 20 19 16 18 20 21 23 21 17 16 13 9 6 4 4 6 6 11 17 18 22 26 23 20 19 18 19 18 18 22 27 25 14 8 10 8 7 11 12 10 11 4 4 6 9 8 9 8 6 8 8 6 5 7 11 12 8 7 6 0 1 5 3 2 2 6 4 2 4 4 4 5 5 5 6 6 6 7 7 7 9 10 11
20 20 20 19 21 22 19 17 19 20 21 22 17 14 15 12 8 6 2 2 5 4 5 10 11 12 16 19 21 17 9 11 18 21 22 27 27 15 7 7 4 5 8 8 5 5 2 5 6 6 7 8 7 6 8 8 6 4 4 9 11 9 6 5 4 3 4 3 1 1 5 4 1 3 4 5 5 6 5 6 7 7 8 8 9 11 12 12
21 21 20 22 26 25 21 18 19 20 19 17 14 16 15 13 10 6 3 3 6 6 8 8 9 9 11 16 24 18 3 5 14 18 23 27 26 16 9 7 4 3 5 5 3 2 4 6 4 5 6 6 6 6 6 9 7 3 2 3 7 8 8 7 7 6 3 2 0 3 3 5 6 2 3 4 5 6 7 7 8 9 9 9 10 12 15 15
22 22 22 25 29 28 25 21 18 20 18 11 13 18 16 16 13 7 3 4 3 6 7 7 9 11 12 18 25 14 2 8 9 11 22 26 22 13 8 8 7 6 6 6 6 2 4 7 8 9 7 6 6 2 7 12 6 1 2 2 4 4 5 6 6 5 1 1 4 5 4 4 7 2 3 3 5 7 8 9 9 11 11 10 11 14 16 18
23 23 23 25 27 26 25 24 21 19 15 10 14 19 19 18 12 5 1 4 3 5 4 8 10 9 14 18 16 7 4 5 1 7 18 20 18 9 4 7 7 6 5 4 5 0 1 3 5 8 6 6 3 4 3 9 4 4 6 5 6 4 4 3 3 3 2 3 7 6 8 5 6 3 4 3 4 7 7 8 9 11 11 10 11 14 17 20
26 25 24 24 26 25 24 27 26 18 14 15 17 21 22 17 8 3 3 4 2 4 5 9 9 8 15 14 6 3 3 1 4 12 12 10 13 7 4 7 6 5 3 3 2 1 3 2 1 3 3 3 6 6 4 1 3 9 7 6 7 5 4 3 1 2 2 5 5 3 6 6 4 3 5 3 1 1 4 7 8 10 12 11 12 15 19 21
28 28 26 26 29 29 27 30 29 21 18 20 22 26 22 10 2 5 7 2 1 3 6 5 4 8 15 11 4 5 3 1 7 12 8 6 8 7 7 7 4 3 2 3 3 1 1 2 1 2 4 6 7 5 5 4 3 5 4 5 5 3 3 2 2 2 5 5 2 2 2 5 6 4 2 1 2 1 3 6 10 13 14 14 15 19 22 24
31 30 29 29 31 31 31 32 27 23 22 23 28 29 17 4 3 8 6 3 1 4 6 4 4 9 12 6 3 6 4 3 7 8 6 5 7 8 7 6 7 5 4 7 5 1 2 4 1 2 5 7 6 5 4 2 1 3 4 7 6 3 3 3 3 3 5 3 2 2 2 4 7 6 3 1 3 2 1 2 8 15 16 15 18 22 25 26
33 32 30 31 32 32 33 31 25 26 25 26 30 24 9 4 10 12 8 5 2 1 4 5 4 7 10 6 3 5 3 2 7 5 3 4 6 8 4 3 4 2 2 7 6 3 3 2 3 4 4 8 10 7 5 4 5 7 7 8 7 5 4 5 3 2 3 1 3 2 1 2 4 5 3 2 4 3 1 1 5 13 15 17 21 25 27 28
32 32 32 32 33 33 32 30 27 27 25 28 27 14 6 10 13 12 11 7 1 2 4 5 7 8 8 5 4 7 3 2 7 6 3 5 6 8 6 5 6 1 2 4 4 6 5 3 6 7 4 10 13 5 3 6 7 6 3 2 4 3 3 4 3 2 1 2 2 1 2 4 4 1 1 1 2 1 1 2 5 10 13 17 24 27 28 30
30 33 36 36 36 37 32 29 29 28 29 30 18 8 10 13 10 9 9 6 2 2 4 5 9 9 7 2 2 7 4 2 7 6 4 7 6 8 9 9 9 5 4 5 3 4 5 3 2 2 2 9 11 2 3 6 6 3 1 1 3 2 1 0 0 1 2 1 2 3 3 3 2 1 1 0 1 2 2 3 7 10 13 18 24 28 30 31
31 36 40 40 41 40 35 32 30 31 35 26 9 8 13 10 4 4 5 5 5 7 9 6 5 6 6 3 3 8 4 1 7 6 4 5 5 6 6 6 10 10 8 7 3 3 4 1 2 2 2 3 4 3 2 2 3 4 3 4 2 1 1 2 0 2 2 4 3 4 4 3 1 2 3 3 3 4 4 5 8 11 14 19 24 29 32 34
34 39 41 43 44 41 38 36 32 37 39 22 7 9 8 4 2 1 1 3 7 12 11 5 6 7 7 5 6 10 6 3 7 7 5 4 4 6 6 5 10 14 12 7 2 2 4 1 1 1 2 1 1 5 4 2 1 4 5 5 3 0 0 1 2 1 2 6 3 4 7 6 5 3 3 5 6 7 7 7 8 11 14 18 25 32 35 36
34 39 41 46 47 43 41 38 36 41 35 15 8 11 6 3 2 2 1 3 6 10 8 7 7 7 8 7 6 10 9 6 8 7 6 5 4 9 11 6 9 17 17 8 1 2 3 2 2 0 1 3 2 4 5 2 1 1 2 3 2 3 3 3 2 2 3 5 3 4 6 5 7 5 4 7 10 10 9 9 9 13 18 21 26 34 37 37
33 33 34 44 48 46 43 41 43 42 24 7 9 11 6 6 4 2 6 5 3 6 8 7 6 4 6 7 5 8 9 8 10 8 6 5 3 8 12 6 7 15 18 12 4 1 2 3 2 1 0 3 2 4 6 5 2 2 1 3 0 3 2 2 2 1 3 4 3 2 3 4 6 7 9 12 12 11 12 10 11 16 22 25 30 38 41 41
32 23 20 34 43 45 44 43 44 34 14 8 12 8 4 5 5 7 12 9 2 4 5 5 6 5 5 5 3 5 8 7 9 7 5 6 5 6 9 5 4 8 11 10 5 2 2 3 3 3 1 3 5 5 6 8 7 5 5 6 4 1 0 1 2 1 1 4 3 4 4 3 4 3 6 8 6 9 13 12 12 17 24 30 36 43 46 46
30 13 12 24 32 40 46 38 27 17 8 9 12 10 7 5 4 8 14 12 5 3 2 2 4 4 4 5 3 4 6 6 7 5 3 7 6 2 3 3 5 9 8 7 6 4 3 3 4 5 4 5 3 0 1 2 4 5 6 8 8 6 3 3 4 2 1 3 2 3 5 2 3 1 1 1 2 4 10 10 11 18 29 36 41 47 49 49
24 9 10 19 24 38 43 25 11 11 9 9 11 12 11 7 5 8 11 11 6 2 2 1 1 3 3 3 3 4 6 6 6 5 3 5 3 1 2 1 5 12 9 4 4 3 2 2 4 4 3 3 1 3 1 1 1 1 2 3 5 5 6 6 6 3 2 2 1 1 4 3 1 2 2 1 2 1 5 8 8 13 23 31 38 44 47 48
22 13 12 17 26 41 36 12 7 12 8 6 9 12 13 9 8 9 9 11 7 3 3 2 1 3 3 2 3 5 6 4 3 4 2 2 2 1 2 4 7 9 5 2 3 4 2 3 4 4 2 2 2 1 0 1 1 1 1 1 3 4 3 3 3 1 2 4 3 1 5 2 1 0 1 1 1 2 3 7 8 8 12 19 26 32 38 42
18 14 12 20 34 43 29 9 8 12 9 7 8 10 13 10 9 12 11 11 8 4 4 4 3 3 3 2 4 6 7 4 3 4 2 2 3 2 3 7 8 5 2 2 4 8 6 3 5 6 3 3 2 2 2 0 2 3 1 2 5 4 3 2 1 2 3 6 7 5 8 2 2 1 1 0 1 1 1 5 9 9 8 12 19 25 31 35
9 7 10 24 40 39 21 10 11 11 10 11 9 11 12 7 10 17 14 11 10 6 4 4 4 4 2 2 3 4 6 3 3 4 1 1 2 1 3 6 6 3 3 3 4 8 6 2 5 8 8 8 6 4 4 3 2 2 1 3 6 7 8 4 2 4 5 5 9 9 8 2 1 1 2 2 1 1 2 4 9 10 8 10 18 25 28 30
6 3 4 15 28 25 13 10 11 9 9 11 9 10 14 9 7 14 15 11 10 9 4 2 4 4 3 5 4 5 5 2 2 4 4 3 2 1 2 4 4 5 7 6 6 6 2 1 3 5 5 5 3 1 2 3 4 5 5 6 8 8 9 7 4 6 5 3 7 10 8 7 5 3 4 5 3 2 3 4 9 13 12 12 16 22 26 29
5 3 3 5 10 11 8 8 7 7 10 14 8 6 15 14 5 8 14 10 11 13 5 1 5 6 6 10 8 6 6 3 4 7 7 4 2 1 1 2 2 6 7 6 7 6 2 1 3 4 5 2 3 3 2 3 4 7 6 8 9 8 9 10 9 6 5 4 9 8 7 11 9 6 7 7 5 4 4 6 9 12 14 15 15 18 24 28
4 3 6 7 4 4 6 6 5 5 10 14 8 5 13 16 9 8 11 7 10 15 7 1 6 9 8 10 7 5 6 4 3 6 6 3 2 2 1 2 3 2 3 3 4 4 3 3 3 4 6 5 3 4 3 3 2 4 7 10 11 11 12 13 12 8 7 9 13 5 8 13 9 6 8 7 7 7 7 9 10 10 12 16 17 19 22 25
5 1 4 7 3 2 4 3 1 3 7 9 8 7 11 16 15 9 5 5 7 11 9 5 7 8 7 8 6 5 7 6 4 5 5 5 5 4 2 1 1 1 2 3 2 2 3 3 3 5 7 6 3 3 2 4 3 4 8 11 11 12 12 10 11 12 12 14 12 1 5 13 7 5 6 6 8 8 7 10 12 11 13 14 15 17 19 21
8 4 5 5 2 1 3 3 1 1 3 4 4 5 8 14 17 9 3 7 9 7 9 9 8 9 8 8 7 6 7 6 6 6 7 6 5 4 3 3 3 2 1 2 1 0 2 2 3 4 5 4 3 3 2 1 3 6 13 17 13 9 9 10 13 14 13 13 9 2 7 13 5 8 6 6 9 9 7 10 13 13 13 12 13 15 16 18
12 10 9 6 2 2 3 2 3 3 1 2 2 4 4 9 12 8 2 4 7 7 9 9 8 9 8 10 11 9 10 10 9 11 13 11 8 7 4 4 6 6 2 2 3 2 3 2 3 3 5 3 2 4 4 3 1 8 18 19 12 9 9 12 13 12 11 12 10 7 11 10 4 9 8 7 9 10 9 11 13 13 12 12 12 14 15 17
15 12 11 7 3 4 4 1 2 3 2 3 3 4 4 3 4 6 3 1 4 7 10 11 10 7 7 12 13 12 14 15 12 14 18 16 14 13 9 8 11 10 6 4 3 2 4 4 3 4 6 2 0 4 6 5 1 9 12 10 14 15 14 11 10 12 12 12 10 9 11 8 4 7 7 7 8 10 11 14 15 14 13 13 13 15 16 18
Wind_Direction
190 189 190 191 192 192 194 194 193 192 189 189 186 184 183 181 180 178 176 174 174 178 203 224 271 288 309 319 326 332 337 334 327 324 319 316 312 269 160 139 125 107 84 45 32 28 26 21 14 18 22 34 45 58 70 55 36 27 207 246 135 154 117 161 175 154 104 100 117 50 5 339 331 328 330 318 279 277 305 321 351 353 268 280 296 302 301 303
207 204 203 201 201 202 206 208 206 204 203 199 197 196 196 196 195 196 195 199 206 222 245 265 280 297 313 321 328 331 335 333 325 323 322 318 155 138 131 123 109 84 52 26 17 10 359 343 348 18 37 61 62 64 69 45 35 49 118 295 105 124 94 140 152 145 176 65 71 341 356 312 316 322 331 321 289 294 309 329 80 99 103 305 308 307 307 310
221 217 214 211 208 207 211 217 218 216 218 215 215 215 213 215 216 218 222 226 237 250 265 281 294 309 317 323 328 329 338 335 325 334 103 132 133 131 128 120 99 63 31 14 2 353 350 328 312 31 63 77 79 81 76 47 37 65 236 292 98 111 140 187 186 172 213 311 333 291 300 283 294 307 312 320 306 288 333 19 24 81 323 306 313 323 333 347
234 231 228 224 219 217 216 220 223 224 227 227 227 230 231 235 238 240 244 248 257 266 278 291 301 311 317 321 323 328 339 331 276 149 137 136 134 130 127 118 79 17 1 358 352 349 350 310 213 82 89 86 80 89 73 32 37 147 259 31 98 140 192 179 191 194 208 243 266 273 287 274 245 303 304 309 306 294 98 7 317 301 300 303 315 338 8 37
245 244 241 237 235 233 230 228 232 234 237 238 239 242 246 248 253 256 258 263 268 276 286 294 301 307 311 315 317 326 334 325 155 151 149 146 147 152 185 300 313 319 330 338 342 345 344 267 146 103 97 96 94 108 91 52 67 156 137 59 114 166 220 146 179 205 201 214 223 238 265 277 271 285 272 261 291 330 354 317 308 295 286 294 311 330 57 102
250 249 247 246 244 242 242 240 239 241 243 246 247 248 251 254 258 261 264 270 274 279 285 290 295 299 303 307 308 313 310 296 154 163 171 183 226 261 277 287 295 301 310 319 327 334 334 196 149 112 95 103 112 50 106 133 159 237 135 140 174 199 249 204 205 238 224 208 212 234 258 266 271 271 234 226 267 294 305 313 327 303 253 266 312 230 230 235
257 252 250 249 248 247 246 246 244 244 246 248 250 251 254 256 259 262 265 270 275 279 283 287 291 294 298 299 301 297 278 271 235 219 230 245 259 269 276 281 287 293 299 308 313 311 291 193 159 134 123 118 142 121 126 147 185 271 169 152 202 215 242 270 263 268 259 244 246 256 265 249 249 270 169 138 240 269 285 310 13 100 143 137 181 248 288 356
263 258 254 251 251 251 249 250 249 248 249 249 251 251 254 256 259 263 266 270 275 279 282 285 288 289 292 292 296 290 274 271 256 248 251 253 259 265 272 277 282 288 291 294 295 281 237 193 176 156 143 96 145 149 152 179 186 229 240 142 205 229 247 278 279 280 275 269 269 257 253 242 238 243 126 99 280 251 229 199 125 111 110 154 246 334 4 8
264 262 258 255 253 252 252 253 252 252 252 252 253 253 255 257 259 263 267 271 275 278 281 283 284 284 286 286 289 285 275 275 265 252 252 253 256 259 263 268 272 276 279 276 263 252 222 202 196 183 178 140 153 152 169 221 208 184 210 165 242 260 274 288 281 279 276 272 270 249 244 230 198 179 126 58 296 191 175 186 164 167 205 231 266 327 347 355
263 261 259 257 254 253 252 252 253 254 254 255 256 255 256 257 260 263 267 271 272 275 278 278 279 279 279 279 278 274 268 270 270 259 251 252 254 252 252 254 258 261 266 261 243 237 218 207 194 181 172 146 153 145 170 219 16 127 184 266 262 274 283 283 274 273 273 268 258 246 254 143 165 180 130 48 173 160 173 195 191 201 219 234 263 305 328 358
261 260 258 256 254 253 252 251 252 252 253 254 255 256 257 258 259 262 265 269 270 271 273 273 275 274 275 273 253 251 268 271 270 263 252 251 250 247 242 237 239 246 257 255 236 225 213 202 182 175 169 144 150 147 177 194 66 112 306 280 257 271 278 271 271 273 268 265 240 222 205 120 175 198 91 73 158 159 185 202 202 219 234 288 337 8 15 24
259 258 257 255 254 254 252 250 249 249 250 250 251 253 254 256 258 260 263 265 267 267 269 270 272 271 273 268 253 256 269 268 264 258 249 248 248 244 237 232 238 258 267 257 237 223 210 193 180 187 165 142 154 163 172 156 128 332 339 300 277 270 268 261 288 268 228 241 148 164 175 158 175 153 84 47 179 162 191 213 207 250 281 355 14 20 22 22
257 257 257 256 254 252 249 248 247 246 247 246 247 248 250 254 256 258 260 261 263 264 268 269 271 272 267 261 262 265 267 262 259 254 248 246 245 243 240 244 254 263 260 245 233 212 198 183 176 182 157 143 154 156 127 111 308 277 103 316 300 282 257 105 60 312 268 221 159 172 243 175 151 139 70 301 183 169 187 217 218 225 224 5 28 24 21 20
253 257 259 258 254 250 246 244 244 243 245 245 245 246 248 251 252 256 258 260 262 264 267 267 268 266 252 255 267 268 261 257 253 248 248 245 244 246 249 254 257 254 242 227 215 197 190 178 173 173 158 149 138 141 127 89 5 305 264 234 289 292 207 122 54 312 282 191 170 212 273 203 150 156 19 107 178 186 201 206 207 193 176 188 57 24 12 18
251 255 258 258 256 251 246 243 242 241 242 242 243 246 248 251 254 256 258 261 263 264 266 264 262 257 248 259 265 263 257 252 247 245 244 243 244 247 249 249 243 230 215 205 198 192 185 173 171 153 137 146 146 153 181 241 112 356 272 239 188 264 238 126 72 342 295 77 156 223 263 207 153 160 196 137 172 186 199 195 186 183 174 173 169 135 12 26
250 253 254 255 254 253 249 244 241 239 239 241 243 246 249 253 255 257 259 261 263 263 262 260 254 245 246 262 258 256 254 246 245 244 241 240 240 240 239 232 219 207 199 196 195 193 185 172 162 142 141 152 163 185 217 250 233 170 244 260 229 237 272 346 92 42 335 59 149 243 277 290 145 148 150 140 171 182 183 177 170 176 174 172 178 168 139 105
248 248 250 251 251 252 249 244 242 240 240 242 246 249 252 254 256 258 259 258 258 256 254 253 249 245 249 256 254 252 249 245 243 240 236 236 233 231 225 210 198 195 190 188 183 180 178 164 154 152 157 162 170 185 211 245 242 188 197 254 256 241 268 279 132 83 4 259 225 233 264 276 149 143 176 178 181 189 166 155 158 165 171 172 164 151 145 143
246 246 247 248 249 250 248 246 244 242 243 244 246 249 248 251 254 254 253 252 248 248 253 234 217 251 250 238 240 245 245 241 236 232 227 223 220 214 210 203 195 186 172 167 168 167 164 151 159 188 175 185 176 181 210 238 249 202 189 227 245 226 240 256 240 95 32 250 246 220 243 266 210 151 152 185 188 191 160 146 147 150 157 157 145 143 142 143
246 246 246 246 246 246 248 246 243 243 243 242 243 242 243 248 251 252 249 239 223 212 240 215 199 214 255 229 232 239 240 231 224 225 219 210 205 197 196 199 190 176 160 166 174 165 161 142 158 217 212 201 190 199 217 230 39 165 178 219 252 247 248 248 214 86 1 259 252 249 253 266 259 189 143 152 170 166 159 146 144 149 148 146 143 143 143 143
244 245 244 244 244 244 245 243 242 243 239 237 235 230 232 232 239 253 239 231 231 232 239 228 213 220 236 250 233 225 221 217 215 214 211 206 198 187 186 181 173 173 173 176 168 166 183 189 199 218 222 201 195 206 219 87 82 131 167 228 245 251 264 260 125 108 88 269 254 253 261 266 266 243 128 140 165 161 171 164 160 158 148 152 151 151 148 147
245 245 244 243 244 246 244 240 239 239 236 231 224 218 216 211 214 242 233 240 249 246 243 244 237 229 233 245 235 217 206 204 209 206 204 199 189 181 178 171 167 182 182 127 111 149 188 214 223 222 199 140 198 204 193 133 163 205 233 243 241 237 258 273 112 116 136 251 258 247 259 262 259 245 109 146 183 174 181 178 174 164 156 164 160 163 160 153
246 245 244 242 244 250 247 241 236 233 230 224 218 218 222 225 231 242 256 269 265 254 245 242 240 237 235 235 229 218 200 192 203 202 196 188 185 186 174 173 191 184 146 127 128 165 202 229 231 194 92 84 114 176 190 216 221 223 228 242 251 235 262 276 191 108 154 227 261 250 264 268 259 174 111 154 175 157 166 179 181 170 165 173 172 170 165 158
246 245 244 235 231 243 246 240 234 229 225 223 223 222 224 232 236 242 257 282 275 260 247 238 237 236 233 230 227 215 200 201 205 199 195 186 185 192 178 178 199 160 149 179 191 197 206 238 228 146 128 137 115 149 182 208 226 222 215 229 244 217 236 261 172 103 165 224 291 294 277 272 254 165 132 142 145 138 145 164 179 178 177 181 183 177 166 165
245 240 242 239 232 238 244 238 229 227 225 225 228 225 222 226 228 243 256 270 277 260 248 243 237 235 232 229 227 216 212 221 215 202 200 190 182 187 187 183 176 158 184 197 205 215 207 357 169 152 162 184 167 159 179 202 224 218 214 228 244 230 223 244 300 64 214 203 240 267 278 269 243 212 182 142 149 157 156 168 177 181 186 185 184 181 174 174
244 233 230 240 244 243 244 239 229 226 225 226 229 220 215 219 220 239 258 273 267 243 246 240 230 234 231 226 222 212 216 227 223 213 205 196 187 176 179 183 180 196 199 192 209 232 223 83 132 149 162 189 187 185 195 210 232 225 213 223 240 248 235 229 174 314 259 234 175 239 270 259 170 219 210 154 172 180 173 189 189 181 185 184 182 182 181 179
242 237 224 225 237 241 240 239 233 226 223 227 225 204 204 207 202 210 170 319 264 195 194 212 209 222 217 211 203 193 215 231 219 217 206 199 196 183 169 170 190 221 180 167 213 251 201 127 137 147 159 177 194 217 201 195 231 251 209 212 229 240 235 213 184 198 258 277 86 226 267 264 217 226 181 162 196 192 187 207 201 192 189 186 186 185 182 178
237 238 228 222 228 231 228 229 229 220 218 227 215 189 188 182 169 165 135 297 264 164 145 174 180 185 189 191 182 176 213 181 186 205 198 195 197 195 199 174 165 204 140 142 221 233 152 153 161 172 168 172 200 225 187 177 218 250 94 178 202 208 211 202 192 206 255 332 178 202 249 280 270 256 123 157 206 209 208 214 206 200 196 190 190 185 180 175
234 234 231 227 228 227 223 223 224 218 217 220 197 181 173 165 158 138 141 262 249 126 135 159 160 171 171 172 174 170 118 137 154 194 188 189 191 192 219 199 171 166 154 179 216 217 148 172 187 182 180 196 207 217 158 175 211 286 82 124 157 175 187 179 187 211 249 318 245 207 167 264 264 220 119 159 219 234 218 211 208 200 196 193 190 185 178 172
235 232 230 230 233 231 225 224 223 220 215 195 180 176 162 156 151 116 127 241 176 109 120 149 149 158 152 157 175 172 119 137 126 168 173 184 188 185 219 193 162 140 157 227 235 302 65 192 195 178 188 203 173 38 138 185 201 133 125 102 96 91 101 134 195 186 142 239 251 209 172 228 269 205 176 186 237 246 210 199 201 191 191 193 188 185 178 171
235 233 230 228 229 227 223 223 222 213 194 177 175 170 159 153 146 138 205 231 189 105 111 148 151 150 149 151 181 191 144 116 107 138 151 170 181 174 121 141 138 133 152 294 271 72 48 61 136 184 200 143 108 60 30 50 128 140 141 111 100 90 93 105 147 143 195 236 244 196 176 223 268 219 207 206 242 250 168 177 179 177 187 190 186 184 177 171
229 229 228 224 224 222 217 218 217 202 180 172 171 166 159 152 131 195 206 237 9 131 127 144 146 152 160 161 177 174 152 112 140 148 149 153 167 155 132 142 140 140 183 245 219 123 77 146 150 181 155 115 107 85 47 44 124 156 160 144 133 120 139 155 135 169 238 231 150 69 158 222 237 225 218 140 102 126 168 175 173 177 186 185 184 184 177 171
227 224 225 225 225 224 218 219 214 192 178 172 169 166 159 150 226 222 207 91 89 186 151 147 169 174 175 168 146 154 141 147 166 168 159 157 175 174 179 187 166 163 216 213 195 138 196 197 137 124 156 157 143 109 86 75 200 212 173 166 181 175 172 208 191 195 241 225 85 60 160 213 238 247 261 156 137 155 177 170 174 178 181 180 182 182 177 173
235 225 224 226 230 230 226 226 211 186 180 173 168 168 162 188 216 218 200 155 174 181 112 124 148 164 168 162 155 154 133 155 169 174 159 161 188 189 209 232 177 199 230 187 184 181 202 203 154 162 176 187 184 166 163 170 185 200 184 181 195 179 187 215 195 228 264 184 71 48 161 211 245 259 262 169 120 115 92 55 169 175 176 178 181 182 178 174
241 231 227 228 234 236 231 225 206 186 181 173 169 171 185 212 221 212 197 193 193 59 81 116 122 138 167 174 171 164 151 177 167 163 161 167 188 198 208 219 208 242 79 157 192 190 210 241 176 177 163 177 190 197 152 141 164 196 192 207 218 199 218 223 198 238 271 105 104 102 194 207 193 154 348 25 70 86 177 164 166 170 173 177 181 182 180 178
241 240 233 224 227 231 227 220 207 189 182 177 173 181 195 212 226 211 197 181 143 99 91 113 125 145 187 204 170 184 205 218 165 159 174 177 194 199 194 198 197 189 160 180 195 179 218 266 140 102 86 166 183 184 81 123 156 185 56 281 249 243 233 72 1 13 59 64 186 175 232 241 184 129 125 283 266 166 171 170 168 171 175 180 183 185 184 183
239 237 228 216 217 223 219 214 205 191 185 182 184 207 204 214 216 192 196 160 150 141 121 125 141 156 190 188 190 206 228 200 161 174 196 195 226 211 190 196 189 188 189 182 165 158 199 257 69 64 67 162 181 145 123 170 159 143 174 201 215 352 79 125 148 64 66 268 229 172 224 237 174 213 167 164 211 186 169 169 171 173 176 182 187 189 189 187
235 228 221 215 218 222 216 209 200 189 187 188 212 221 213 230 194 154 237 123 134 143 140 167 186 173 184 189 195 194 187 156 170 187 186 177 226 199 188 225 193 191 206 201 190 200 181 137 86 140 141 138 167 127 97 9 103 141 189 184 138 21 321 193 246 117 178 255 255 183 219 209 183 211 157 164 205 201 183 171 170 174 178 187 194 195 193 189
234 225 222 222 223 222 216 208 195 187 186 189 226 229 227 224 194 91 142 135 125 151 176 204 187 177 189 189 186 181 179 175 173 184 181 177 218 181 174 208 195 193 205 201 199 225 188 156 117 129 158 133 158 154 122 59 17 77 192 149 126 225 203 166 226 237 210 247 260 197 217 221 204 198 160 187 208 198 177 168 175 184 187 192 197 198 196 193
230 219 223 227 223 219 217 207 191 184 183 194 221 225 230 214 206 157 174 169 135 176 201 212 193 190 195 182 160 165 185 186 164 174 193 187 207 179 173 190 196 196 196 183 171 186 183 214 177 135 129 132 162 209 186 168 124 39 139 154 264 272 219 166 186 226 228 241 265 220 202 214 212 199 181 194 202 180 166 174 190 194 193 194 197 199 198 195
223 212 232 231 220 218 217 203 190 183 182 204 208 213 222 206 207 200 191 185 179 201 210 216 197 186 183 179 147 158 190 197 170 178 205 186 189 190 184 185 172 183 187 181 190 167 149 223 186 130 141 175 182 210 198 175 163 166 175 176 187 187 26 268 209 138 250 244 249 261 259 206 183 201 192 191 189 169 172 182 190 195 197 198 199 199 197 196
219 211 243 227 219 217 207 195 189 188 190 201 205 213 209 195 193 196 196 198 213 224 212 231 206 185 168 174 173 164 176 188 180 185 205 192 200 207 179 189 157 150 155 177 202 194 170 194 168 149 178 194 188 350 306 189 169 179 187 183 186 174 151 215 223 173 236 260 241 264 281 242 144 13 286 120 38 180 187 188 186 194 199 201 203 201 199 198
209 214 232 207 207 207 195 186 192 196 204 207 201 205 195 183 194 192 193 202 217 227 196 244 238 191 165 164 168 161 162 175 186 189 197 192 199 159 121 115 157 154 152 168 192 166 117 134 147 149 177 189 39 24 5 320 9 345 238 190 188 190 177 206 230 196 164 234 55 26 281 279 109 18 348 30 2 287 221 216 209 205 204 204 205 204 202 202
200 214 220 189 195 197 189 187 204 194 215 206 179 190 189 185 195 188 188 198 201 191 184 201 222 205 205 159 147 158 157 163 187 182 187 185 166 152 144 136 144 153 154 141 153 149 140 158 156 142 100 74 54 52 95 21 46 218 271 181 196 213 193 219 240 147 184 201 143 181 254 245 114 63 351 352 322 326 253 231 226 224 215 210 208 207 207 207
202 208 201 179 187 192 189 193 195 197 214 188 168 191 194 192 193 189 197 200 190 172 180 200 207 205 217 158 153 173 170 173 195 177 174 200 173 126 123 141 142 146 178 193 174 174 178 180 165 162 166 165 174 191 185 213 209 210 204 171 203 192 116 75 92 104 247 203 164 218 248 215 106 279 300 9 315 329 250 229 227 222 215 210 208 210 212 211
196 198 195 183 185 192 202 211 194 196 206 195 195 197 192 201 203 198 200 195 187 178 167 201 196 170 186 155 133 174 178 167 178 170 151 189 169 74 107 148 156 156 183 203 183 174 177 191 180 183 192 194 194 198 196 182 166 193 182 178 205 190 163 164 162 192 230 177 164 218 247 236 105 272 269 262 272 267 203 206 220 218 214 211 209 211 212 213
171 181 198 188 192 204 234 238 204 192 193 198 205 195 194 207 205 195 196 192 192 182 149 165 167 142 174 180 159 177 181 110 99 158 171 168 161 7 99 149 168 161 152 137 130 141 139 316 215 222 228 196 164 152 170 121 139 188 195 182 199 199 185 190 200 206 201 158 201 224 234 252 239 179 221 238 206 223 215 189 205 210 215 218 213 214 216 217
170 187 163 178 204 220 253 259 230 206 193 193 191 185 197 202 183 184 197 200 191 180 153 59 173 178 193 185 178 179 164 104 101 156 172 167 131 64 105 96 109 149 147 127 113 107 89 241 221 250 272 259 92 106 148 132 168 193 189 191 203 197 187 196 211 208 142 167 246 230 195 240 244 172 191 216 192 207 217 197 198 199 206 213 209 211 217 219
181 196 176 173 188 218 233 243 237 227 209 195 182 173 194 196 189 187 193 191 181 179 178 243 197 194 186 171 165 160 153 130 134 167 173 163 133 117 92 30 45 129 141 129 124 110 131 213 194 188 239 255 94 115 164 153 164 193 193 203 204 192 190 198 210 210 165 208 252 231 173 229 241 178 197 206 182 194 196 189 188 184 196 205 203 206 213 218
181 161 169 176 178 189 206 216 242 239 219 197 182 183 189 194 197 191 163 150 175 186 184 185 196 192 167 150 137 143 164 160 156 177 177 167 168 156 138 134 123 108 85 108 130 135 169 198 163 171 225 239 156 140 162 164 201 238 226 224 213 196 193 193 208 217 208 226 251 185 188 242 238 170 204 198 174 184 189 190 194 198 207 207 204 211 218 223
196 191 161 150 129 121 171 191 131 109 214 206 194 192 192 196 195 186 152 169 176 184 182 175 182 181 164 159 159 169 186 169 149 174 178 168 179 181 175 177 148 107 83 120 121 197 198 181 112 143 221 230 155 132 91 142 220 240 244 242 230 203 192 197 216 223 219 232 245 192 240 259 221 152 184 190 175 183 196 203 204 206 208 204 203 213 221 227
208 201 179 151 132 160 164 177 146 126 175 223 191 173 192 207 192 166 136 183 164 167 182 172 162 167 173 184 185 187 189 174 162 174 178 176 186 193 194 170 145 141 159 163 143 154 193 169 93 133 208 222 150 159 143 95 134 249 254 245 221 204 207 206 217 222 215 225 230 218 241 254 175 153 180 186 185 194 198 200 201 201 202 205 212 221 229 235
206 198 184 164 156 178 170 146 166 174 186 173 157 154 159 193 179 145 126 163 142 159 179 171 156 158 184 195 196 196 192 186 184 185 184 186 194 198 196 174 159 157 162 165 160 156 169 167 138 169 199 220 344 176 153 110 170 251 252 217 195 211 216 207 220 226 215 216 219 222 238 239 164 159 176 178 188 197 199 200 206 213 217 221 228 233 237 240